• Em Portugal
  • Lista de países
  • Para 7 dias
  • Temperatura da água
  • Mapas de satélite
  • Mapa do tempo
  • Widgets de tempo
  • user-avatar
    Iniciar Sessão

    Previsão horária em Mosul

    Hoje, 20 Julho, Sexta-feira

    Tempo Temperatura Precipitação Vento Pressão Humidade
    00:00 +39°C° 0 mm 6 m/s 723 mmHg 15%
    01:00 +38°C° 0 mm 6 m/s 723 mmHg 16%
    02:00 +36°C° 0 mm 6 m/s 723 mmHg 18%
    03:00 +35°C° 0 mm 5 m/s 723 mmHg 19%
    04:00 +35°C° 0 mm 5 m/s 723 mmHg 20%
    05:00 +34°C° 0 mm 4 m/s 723 mmHg 20%
    06:00 +34°C° 0 mm 4 m/s 723 mmHg 20%
    07:00 +35°C° 0 mm 4 m/s 723 mmHg 18%
    08:00 +37°C° 0 mm 4 m/s 724 mmHg 16%
    09:00 +40°C° 0 mm 4 m/s 724 mmHg 13%
    10:00 +41°C° 0 mm 4 m/s 724 mmHg 12%
    11:00 +42°C° 0 mm 5 m/s 724 mmHg 11%
    12:00 +43°C° 0 mm 5 m/s 724 mmHg 10%
    13:00 +43°C° 0 mm 5 m/s 724 mmHg 10%
    14:00 +45°C° 0 mm 6 m/s 724 mmHg 9%
    15:00 +45°C° 0 mm 6 m/s 723 mmHg 8%
    16:00 +44°C° 0 mm 6 m/s 723 mmHg 9%
    17:00 +44°C° 0 mm 6 m/s 723 mmHg 10%
    18:00 +42°C° 0 mm 6 m/s 723 mmHg 11%
    19:00 +41°C° 0 mm 5 m/s 723 mmHg 13%
    20:00 +40°C° 0 mm 5 m/s 723 mmHg 15%
    21:00 +38°C° 0 mm 4 m/s 723 mmHg 17%
    22:00 +37°C° 0 mm 4 m/s 723 mmHg 20%
    23:00 +37°C° 0 mm 4 m/s 723 mmHg 22%

    Amanhã, 21 Julho, Sábado

    Tempo Temperatura Precipitação Vento Pressão Humidade
    00:00 +36°C° 0 mm 4 m/s 723 mmHg 25%
    01:00 +35°C° 0 mm 5 m/s 723 mmHg 29%
    02:00 +35°C° 0 mm 5 m/s 723 mmHg 32%
    03:00 +34°C° 0 mm 5 m/s 722 mmHg 36%
    04:00 +34°C° 0 mm 4 m/s 722 mmHg 36%
    05:00 +34°C° 0 mm 4 m/s 722 mmHg 36%
    06:00 +33°C° 0 mm 3 m/s 722 mmHg 37%
    07:00 +34°C° 0 mm 3 m/s 723 mmHg 33%
    08:00 +36°C° 0 mm 3 m/s 723 mmHg 29%
    09:00 +37°C° 0 mm 2 m/s 723 mmHg 25%
    10:00 +38°C° 0 mm 3 m/s 723 mmHg 23%
    11:00 +40°C° 0 mm 3 m/s 723 mmHg 20%
    12:00 +42°C° 0 mm 3 m/s 723 mmHg 17%
    13:00 +42°C° 0 mm 3 m/s 723 mmHg 16%
    14:00 +43°C° 0 mm 4 m/s 722 mmHg 15%
    15:00 +44°C° 0 mm 4 m/s 722 mmHg 14%
    16:00 +44°C° 0 mm 4 m/s 722 mmHg 15%
    17:00 +43°C° 0 mm 4 m/s 722 mmHg 15%
    18:00 +43°C° 0 mm 4 m/s 721 mmHg 15%
    19:00 +43°C° 0 mm 4 m/s 722 mmHg 16%
    20:00 +42°C° 0 mm 4 m/s 722 mmHg 17%
    21:00 +41°C° 0 mm 4 m/s 722 mmHg 18%
    22:00 +40°C° 0 mm 4 m/s 722 mmHg 19%
    23:00 +38°C° 0 mm 4 m/s 722 mmHg 20%

    Depois de amanhã, 22 Julho, Domingo

    Tempo Temperatura Precipitação Vento Pressão Humidade
    00:00 +39°C° 0 mm 5 m/s 722 mmHg 21%
    01:00 +37°C° 0 mm 4 m/s 722 mmHg 24%
    02:00 +36°C° 0 mm 4 m/s 721 mmHg 26%
    03:00 +35°C° 0 mm 4 m/s 721 mmHg 29%
    04:00 +35°C° 0 mm 3 m/s 721 mmHg 31%
    05:00 +35°C° 0 mm 3 m/s 722 mmHg 32%
    06:00 +34°C° 0 mm 3 m/s 722 mmHg 34%
    07:00 +35°C° 0 mm 2 m/s 722 mmHg 31%
    08:00 +37°C° 0 mm 2 m/s 722 mmHg 29%
    09:00 +38°C° 0 mm 2 m/s 722 mmHg 27%
    10:00 +39°C° 0 mm 3 m/s 722 mmHg 23%
    11:00 +40°C° 0 mm 3 m/s 722 mmHg 20%
    12:00 +43°C° 0 mm 3 m/s 722 mmHg 17%
    13:00 +43°C° 0 mm 3 m/s 722 mmHg 16%
    14:00 +44°C° 0 mm 4 m/s 721 mmHg 15%
    15:00 +44°C° 0 mm 4 m/s 721 mmHg 14%
    16:00 +44°C° 0 mm 4 m/s 721 mmHg 14%
    17:00 +44°C° 0 mm 4 m/s 721 mmHg 14%
    18:00 +44°C° 0 mm 4 m/s 721 mmHg 14%
    19:00 +43°C° 0 mm 3 m/s 721 mmHg 15%
    20:00 +42°C° 0 mm 3 m/s 721 mmHg 16%
    21:00 +40°C° 0 mm 3 m/s 721 mmHg 17%
    22:00 +40°C° 0 mm 3 m/s 721 mmHg 18%
    23:00 +39°C° 0 mm 3 m/s 721 mmHg 19%

    23 Julho, Segunda-feira

    Tempo Temperatura Precipitação Vento Pressão Humidade
    00:00 +38°C° 0 mm 3 m/s 721 mmHg 20%
    01:00 +37°C° 0 mm 3 m/s 721 mmHg 20%
    02:00 +37°C° 0 mm 3 m/s 721 mmHg 21%
    03:00 +36°C° 0 mm 3 m/s 721 mmHg 21%
    04:00 +36°C° 0 mm 3 m/s 721 mmHg 23%
    05:00 +35°C° 0 mm 3 m/s 721 mmHg 25%
    06:00 +35°C° 0 mm 3 m/s 721 mmHg 26%
    07:00 +36°C° 0 mm 3 m/s 721 mmHg 25%
    08:00 +38°C° 0 mm 3 m/s 722 mmHg 23%
    09:00 +39°C° 0 mm 3 m/s 722 mmHg 21%
    10:00 +40°C° 0 mm 3 m/s 722 mmHg 19%
    11:00 +42°C° 0 mm 3 m/s 722 mmHg 17%
    12:00 +43°C° 0 mm 3 m/s 721 mmHg 16%
    13:00 +44°C° 0 mm 3 m/s 721 mmHg 14%
    14:00 +45°C° 0 mm 3 m/s 721 mmHg 13%
    15:00 +45°C° 0 mm 2 m/s 720 mmHg 12%
    16:00 +45°C° 0 mm 2 m/s 720 mmHg 11%
    17:00 +45°C° 0 mm 2 m/s 720 mmHg 11%
    18:00 +45°C° 0 mm 2 m/s 720 mmHg 10%
    19:00 +43°C° 0 mm 2 m/s 720 mmHg 11%
    20:00 +42°C° 0 mm 1 m/s 721 mmHg 12%
    21:00 +41°C° 0 mm 1 m/s 721 mmHg 12%
    22:00 +40°C° 0 mm 1 m/s 721 mmHg 13%
    23:00 +39°C° 0 mm 2 m/s 721 mmHg 13%

    24 Julho, Terça-feira

    Tempo Temperatura Precipitação Vento Pressão Humidade
    00:00 +39°C° 0 mm 3 m/s 721 mmHg 13%
    01:00 +38°C° 0 mm 3 m/s 721 mmHg 14%
    02:00 +37°C° 0 mm 3 m/s 721 mmHg 15%
    03:00 +37°C° 0 mm 3 m/s 720 mmHg 16%
    04:00 +36°C° 0 mm 2 m/s 721 mmHg 17%
    05:00 +36°C° 0 mm 2 m/s 721 mmHg 17%
    06:00 +36°C° 0 mm 2 m/s 721 mmHg 18%
    07:00 +37°C° 0 mm 2 m/s 722 mmHg 16%
    08:00 +39°C° 0 mm 2 m/s 722 mmHg 15%
    09:00 +41°C° 0 mm 2 m/s 722 mmHg 13%
    10:00 +42°C° 0 mm 2 m/s 722 mmHg 12%
    11:00 +43°C° 0 mm 1 m/s 722 mmHg 11%
    12:00 +45°C° 0 mm 1 m/s 722 mmHg 10%
    13:00 +46°C° 0 mm 2 m/s 722 mmHg 10%
    14:00 +47°C° 0 mm 2 m/s 721 mmHg 9%
    15:00 +48°C° 0 mm 3 m/s 721 mmHg 8%
    16:00 +48°C° 0 mm 3 m/s 721 mmHg 8%
    17:00 +47°C° 0 mm 3 m/s 721 mmHg 8%
    18:00 +47°C° 0 mm 3 m/s 721 mmHg 8%
    19:00 +47°C° 0 mm 4 m/s 721 mmHg 8%
    20:00 +45°C° 0 mm 4 m/s 721 mmHg 9%
    21:00 +44°C° 0 mm 4 m/s 722 mmHg 9%
    22:00 +43°C° 0 mm 4 m/s 722 mmHg 9%
    23:00 +42°C° 0 mm 4 m/s 722 mmHg 10%

    25 Julho, Quarta-feira

    Tempo Temperatura Precipitação Vento Pressão Humidade
    00:00 +41°C° 0 mm 4 m/s 721 mmHg 10%
    01:00 +40°C° 0 mm 4 m/s 721 mmHg 11%
    02:00 +40°C° 0 mm 4 m/s 721 mmHg 11%
    03:00 +38°C° 0 mm 3 m/s 721 mmHg 12%
    04:00 +38°C° 0 mm 3 m/s 721 mmHg 12%
    05:00 +37°C° 0 mm 3 m/s 721 mmHg 13%
    06:00 +37°C° 0 mm 3 m/s 722 mmHg 13%
    07:00 +39°C° 0 mm 3 m/s 722 mmHg 12%
    08:00 +42°C° 0 mm 3 m/s 722 mmHg 11%
    09:00 +44°C° 0 mm 4 m/s 722 mmHg 10%
    10:00 +45°C° 0 mm 3 m/s 722 mmHg 9%
    11:00 +47°C° 0 mm 3 m/s 722 mmHg 8%
    12:00 +48°C° 0 mm 3 m/s 722 mmHg 7%
    13:00 +50°C° 0 mm 3 m/s 721 mmHg 7%
    14:00 +51°C° 0 mm 3 m/s 721 mmHg 7%
    15:00 +51°C° 0 mm 3 m/s 721 mmHg 6%
    16:00 +51°C° 0 mm 3 m/s 721 mmHg 6%
    17:00 +51°C° 0 mm 4 m/s 721 mmHg 6%
    18:00 +51°C° 0 mm 4 m/s 721 mmHg 6%
    19:00 +49°C° 0 mm 4 m/s 721 mmHg 6%
    20:00 +48°C° 0 mm 4 m/s 721 mmHg 7%
    21:00 +45°C° 0 mm 4 m/s 721 mmHg 7%
    22:00 +45°C° 0 mm 5 m/s 721 mmHg 8%
    23:00 +45°C° 0 mm 5 m/s 721 mmHg 8%
    Mostrar mais